Location: Eindhoven
(51.4416°N, 5.4697°E)
Time: 16:21:59
(UTC+01:00)

deb Explorer IX - Pass Details

Date: 23 November 2019
Orbit: 545 x 1105 km, 38.8° (Epoch: 05 December)

Event Time Altitude Azimuth Distance (km) Brightness Sun altitude
Rises 23:57:09 0° 216° (SW) 3,864 - -58.3°
Reaches altitude 10° 00:00:55 10° 198° (SSW) 2,851 - -58.4°
Maximum altitude 00:05:16 18° 159° (SSE) 2,241 - -58.6°
Drops below altitude 10° 00:09:21 10° 120° (ESE) 2,644 - -58.6°
Sets 00:12:39 0° 101° (ESE) 3,479 - -58.7°
